Liberia, Costa Rica

1:20 PM CST on February 06, 2016 (GMT -0600)
Daniel Oduber Quiros International

Weather History for MRLB - July, 2013

Change the Weather History Date:

Friday, July 12, 2013

  Actual Average Record
Temperature  
Mean Temperature 82 °F -  
Max Temperature 90 °F 87 °F 94 °F (2012)
Min Temperature 73 °F 75 °F 71 °F (2004)
Cooling Degree Days 16    
Growing Degree Days 32 (Base 50)    
Moisture  
Dew Point 74 °F    
Average Humidity 77    
Maximum Humidity 94    
Minimum Humidity 61    
Precipitation  
Precipitation 0.79 in - - ()
Sea Level Pressure  
Sea Level Pressure 29.88 in    
Wind  
Wind Speed 4 mph ()    
Max Wind Speed 12 mph    
Max Gust Speed -    
Visibility 7.7 miles    
Events Rain    
Averages and records for this station are not official NWS values.
T = Trace of Precipitation, MM = Missing Value Source: Averaged Metar Reports

Daily Weather History Graph

Daily Weather History Graph

Search for Another Location

Airport or City:

Trip Planner

Search our weather history database for the weather conditions in past years. The results will help you decide how hot, cold, wet, or windy it might be!

Date:

Astronomy

Jul. 12, 2013 Rise Set
Actual Time 5:26 AM CST 6:08 PM CST
Civil Twilight 5:04 AM CST 6:31 PM CST
Nautical Twilight 4:37 AM CST 6:58 PM CST
Astronomical Twilight 4:09 AM CST 7:25 PM CST
Moon 8:50 AM CST (7/12) 9:16 PM CST (7/12)
Length of Visible Light 13h 27m
Length of Day
12h 41m
Waxing Crescent, 18% of the Moon is Illuminated
Jul 12
Waxing Crescent
Jul 15
First Quarter
Jul 22
Full
Jul 29
Last Quarter
Aug 6
New

Hourly Weather History & Observations

Time (CST) Temp. Heat Index Dew Point Humidity Pressure Visibility Wind Dir Wind Speed Gust Speed Precip Events Conditions
6:00 AM 74 °F - 71 °F 88% 29.88 in 12 mi NE 3.5 mph - -   Scattered Clouds
6:00 AM 73.4 °F - 71.6 °F 94% 29.87 in 6.2 mi NE 3.5 mph - N/A   Scattered Clouds
7:00 AM 75.2 °F - 71.6 °F 89% 29.89 in 6.2 mi SE 3.5 mph - N/A   Scattered Clouds
8:00 AM 78.8 °F - 73.4 °F 83% 29.91 in 6.2 mi North 3.5 mph - N/A   Scattered Clouds
9:00 AM 80 °F - 73 °F 74% 29.94 in 12 mi East 3.5 mph - -   Overcast
9:00 AM 80.6 °F 85.4 °F 73.4 °F 79% 29.92 in 6.2 mi East 3.5 mph - N/A   Mostly Cloudy
10:00 AM 82.4 °F 89.5 °F 75.2 °F 79% 29.92 in 6.2 mi South 4.6 mph - N/A   Scattered Clouds
11:00 AM 82.4 °F 88.2 °F 73.4 °F 74% 29.91 in 6.2 mi South 5.8 mph - N/A   Mostly Cloudy
12:00 PM 84 °F - 75 °F 67% 29.90 in 12 mi South 6.7 mph - -   Overcast
12:00 PM 84.2 °F 92.3 °F 75.2 °F 74% 29.89 in 6.2 mi South 3.5 mph - N/A   Mostly Cloudy
1:00 PM 87.8 °F 95.6 °F 73.4 °F 62% 29.86 in 6.2 mi SSE 3.5 mph - N/A   Mostly Cloudy
2:00 PM 87.8 °F 95.6 °F 73.4 °F 62% 29.82 in 6.2 mi South 4.6 mph - N/A   Mostly Cloudy
3:00 PM 87 °F - 76 °F 61% 29.83 in 12 mi WSW 5.8 mph - -   Overcast
3:00 PM 87.8 °F 97.6 °F 75.2 °F 66% 29.81 in 6.2 mi WSW 5.8 mph - N/A   Mostly Cloudy
4:00 PM 82.4 °F 88.2 °F 73.4 °F 74% 29.82 in 6.2 mi West 11.5 mph - N/A   Mostly Cloudy
5:00 PM 80.6 °F 85.4 °F 73.4 °F 79% 29.84 in 6.2 mi WSW 3.5 mph - N/A Rain Light Rain
6:00 PM 80 °F - 74 °F 79% 29.88 in 12 mi North 3.5 mph - -   Overcast
6:00 PM 80.6 °F 86.2 °F 75.2 °F 84% 29.86 in 6.2 mi North 3.5 mph - N/A   Mostly Cloudy
7:00 PM 78.8 °F - 75.2 °F 89% 29.88 in 6.2 mi ENE 4.6 mph - N/A Rain Light Rain
8:00 PM 78.8 °F - 75.2 °F 89% 29.88 in 6.2 mi ENE 5.8 mph - N/A   Light Drizzle